Theta_e
334 333 334 334 334 332 332 331 330 325 324 327 325 326 327 326 327 327 327 327 325 322 317 323 321 320 319 320 319 318 316 315 317 311 313 308 308 306 303 302 301 300 300
334 331 334 334 334 333 333 331 331 327 325 325 325 324 323 326 327 328 326 326 325 321 318 321 321 321 318 318 319 318 318 318 317 312 310 306 304 303 302 301 301 300 300
334 329 333 334 334 334 334 332 330 329 325 327 325 324 322 327 328 326 326 326 324 322 321 321 321 318 317 318 319 317 318 313 316 316 312 305 304 302 301 301 301 300 300
330 334 334 333 334 334 334 334 333 331 328 326 325 324 325 329 328 326 326 326 325 322 314 320 319 320 319 319 316 314 314 308 311 313 314 305 303 301 301 301 301 300 300
329 332 334 330 330 334 333 334 334 333 330 326 327 328 328 329 328 326 326 326 325 321 314 320 319 319 320 319 317 318 314 312 307 310 308 303 303 302 301 301 301 300 300
327 330 329 332 331 328 333 333 332 334 331 327 329 330 330 329 329 327 326 325 325 322 315 314 318 318 319 319 318 312 316 314 307 306 306 303 302 301 301 301 300 300 300
323 329 332 332 327 329 330 333 332 333 330 326 329 331 330 329 329 327 326 325 325 324 320 313 312 314 317 318 318 319 317 315 310 307 305 304 302 302 301 301 300 300 300
318 325 329 332 331 332 332 333 331 330 330 328 330 330 326 325 326 327 326 326 325 324 323 319 314 311 309 311 313 314 313 320 318 312 309 304 302 302 301 301 300 300 300
315 319 325 328 331 332 333 332 332 332 329 329 329 329 326 326 326 326 326 326 326 325 323 322 320 317 310 308 307 306 305 309 315 319 313 310 305 303 301 301 300 300 300
312 317 322 326 330 330 332 332 331 331 330 330 329 329 329 328 327 327 326 326 326 326 324 323 322 321 319 315 311 310 308 305 306 317 316 311 304 302 302 301 301 300 300
310 314 316 322 325 330 331 332 331 330 330 329 325 327 329 328 328 328 328 327 326 326 325 324 323 323 322 321 320 316 309 305 304 303 306 311 305 303 302 301 301 301 300
304 311 314 319 320 326 329 329 331 331 331 329 329 328 327 328 327 327 327 327 327 326 325 325 324 323 323 323 322 321 319 311 306 305 303 303 305 304 303 302 301 301 300
299 307 311 315 317 321 326 329 330 330 330 330 330 330 329 328 327 328 326 327 327 326 326 325 325 324 324 324 324 323 322 320 315 309 308 304 303 303 303 302 301 301 301
296 300 306 310 313 318 322 326 329 330 330 330 330 329 330 327 326 327 327 327 326 326 326 326 326 326 326 325 325 325 324 323 322 320 314 309 307 305 304 302 302 302 301
295 297 301 306 310 317 320 323 326 328 327 330 329 330 328 329 329 329 329 328 328 326 326 326 326 326 327 327 327 326 326 324 324 323 321 319 312 311 311 309 304 302 301
295 297 299 301 304 311 315 321 323 326 328 328 328 328 328 330 329 328 327 327 328 328 327 327 326 327 327 327 327 327 327 326 325 325 323 322 321 318 316 315 312 307 302
295 296 297 299 302 306 311 316 320 324 326 327 326 327 328 328 328 329 329 328 328 328 326 327 327 327 327 327 327 327 326 326 327 326 325 323 323 322 321 320 319 315 311
295 296 296 298 299 302 306 313 316 319 323 325 326 326 327 327 329 329 329 328 327 327 327 326 328 327 326 326 327 327 327 327 327 326 325 324 323 324 323 322 321 319 317
295 296 297 297 298 299 302 307 312 315 319 322 325 325 327 326 326 328 327 328 327 328 327 327 326 325 325 326 326 328 326 327 328 329 327 325 324 324 324 323 323 323 322
295 296 296 296 297 298 300 303 306 310 315 319 320 323 324 325 325 327 327 327 327 326 326 326 326 325 326 326 326 327 327 327 327 328 329 327 325 324 324 324 324 324 323
295 295 296 296 297 298 300 301 304 307 310 313 317 319 321 323 324 325 325 325 325 327 325 327 325 326 325 325 324 326 327 328 327 326 326 326 326 325 325 324 324 324 324
293 293 294 294 296 298 299 299 301 304 307 310 313 315 318 321 323 324 324 326 326 325 325 326 324 325 324 323 325 326 325 325 326 326 326 326 326 328 326 326 325 326 326
292 292 292 292 293 295 297 298 299 301 304 307 310 311 313 317 320 322 323 323 324 325 325 324 326 324 324 323 322 321 321 323 325 325 326 325 325 325 325 324 323 325 326
292 291 292 292 289 293 294 296 297 299 301 303 304 307 309 313 317 318 320 321 322 324 324 324 325 323 324 324 324 324 322 321 322 323 324 325 325 325 325 325 324 325 322
290 291 290 289 288 289 292 294 295 297 298 299 300 303 305 308 311 314 317 319 320 321 322 323 323 323 324 323 323 323 321 320 321 322 322 324 324 324 324 324 324 325 324
288 288 288 287 287 287 288 290 292 294 295 296 297 299 300 302 303 306 312 314 316 318 321 321 321 321 321 322 322 320 321 321 322 321 322 322 323 323 323 324 324 324 324
Wind_Speed
22 20 22 28 28 28 19 25 25 28 28 25 21 21 17 12 9 10 8 2 4 4 5 16 17 16 15 17 14 14 14 13 13 12 13 11 11 11 10 9 8 8 8
14 17 23 28 29 28 25 23 26 28 28 26 21 20 17 13 13 10 7 3 4 3 10 16 17 16 14 17 16 14 13 15 12 12 12 11 10 9 8 8 7 6 6
15 23 23 27 27 28 28 26 21 29 27 25 21 19 18 15 15 12 6 3 3 4 15 16 17 15 13 16 15 13 14 13 12 13 11 11 9 8 7 6 6 5 5
12 20 24 17 20 21 27 28 26 30 30 28 24 22 19 17 15 13 9 4 5 4 8 16 16 15 14 15 15 14 14 12 13 12 13 11 10 9 7 6 6 5 4
7 12 21 17 16 20 27 29 31 29 32 30 25 21 19 17 15 14 10 3 5 6 8 16 16 16 16 15 14 15 13 13 12 13 13 11 11 10 9 8 6 5 5
5 8 20 19 15 11 33 28 24 32 37 31 25 20 19 18 16 13 11 6 7 6 8 11 17 18 17 16 15 14 15 15 13 13 13 11 11 11 10 9 8 7 6
3 8 12 17 16 14 16 20 21 30 34 33 25 21 24 21 19 16 14 12 10 8 7 10 13 17 18 19 17 17 16 15 14 12 12 12 12 12 12 10 9 9 8
5 3 7 16 21 20 19 22 18 25 29 34 30 29 26 25 25 21 18 15 14 12 9 9 10 12 15 18 18 18 19 18 17 16 16 15 14 12 12 12 11 10 10
7 3 2 9 13 20 17 16 20 25 31 34 31 12 15 11 27 23 21 19 18 16 13 11 10 9 10 10 11 13 15 20 18 18 18 17 16 15 14 14 13 13 12
9 5 2 4 16 14 15 13 15 22 26 29 24 30 18 20 20 12 25 24 21 21 18 16 13 12 11 11 11 11 12 15 18 20 20 19 17 17 16 15 15 15 14
7 6 5 1 8 11 14 16 16 16 26 27 22 27 31 19 21 17 17 29 28 27 24 21 18 15 14 14 13 12 12 15 17 18 20 22 20 19 18 17 17 17 16
11 6 7 2 3 11 11 17 15 15 17 22 23 31 33 35 32 27 26 24 32 30 27 26 23 21 18 17 16 14 12 14 17 18 20 20 21 20 20 19 19 19 18
17 7 7 4 3 6 13 15 16 17 15 19 20 27 29 32 29 29 28 24 25 30 29 29 27 25 24 22 20 18 16 15 16 19 20 21 22 21 21 20 20 21 20
21 12 7 6 6 5 9 14 18 16 21 17 17 21 27 25 24 29 31 32 31 31 31 34 29 28 28 28 26 23 23 20 20 19 21 22 22 23 23 22 21 22 21
19 16 9 6 7 8 7 11 21 18 18 18 17 20 32 29 25 25 28 29 31 18 32 34 33 35 28 27 29 30 29 27 24 24 23 22 23 23 23 23 23 23 23
18 18 13 8 8 9 4 12 11 19 23 21 15 18 21 24 27 24 24 21 30 32 28 26 25 22 26 27 24 25 30 31 29 29 27 24 23 24 24 23 23 23 24
16 15 11 13 10 8 8 6 9 16 17 20 21 21 20 19 22 23 28 25 27 31 34 32 31 29 30 27 22 21 24 26 28 30 30 26 25 24 23 23 24 23 24
12 13 12 14 14 11 9 7 9 10 14 19 23 24 22 21 22 22 25 28 25 24 26 27 27 27 26 26 28 29 29 29 25 25 29 30 27 26 25 23 22 23 24
11 11 12 14 15 14 10 7 7 9 10 14 16 22 27 23 26 23 25 24 28 26 25 26 28 28 25 22 27 30 31 30 25 21 23 27 29 28 25 25 24 23 23
8 8 12 14 14 14 13 11 9 8 8 12 13 15 21 25 23 22 23 21 22 23 25 26 27 26 27 23 23 25 27 30 29 27 23 21 24 30 29 28 28 29 28
8 7 9 12 13 13 12 12 11 10 9 9 15 14 16 25 24 23 23 21 22 24 24 31 23 23 24 25 28 29 19 23 23 20 19 20 25 25 27 28 29 31 29
7 7 11 12 11 11 11 12 12 10 8 9 9 13 18 19 24 27 28 25 21 24 25 24 26 25 24 22 26 24 24 24 29 27 28 28 24 22 27 27 27 26 22
11 13 14 15 13 11 9 11 9 10 7 7 8 11 13 16 22 22 25 27 27 28 23 28 26 29 26 21 17 17 20 22 27 27 30 30 31 31 31 28 28 27 24
9 14 15 15 15 13 11 9 5 4 6 5 5 6 10 12 17 20 22 30 28 25 27 28 30 31 30 23 25 24 25 25 25 24 25 32 34 34 33 36 33 34 34
11 12 13 12 13 14 14 11 6 5 4 3 5 7 8 9 14 16 17 22 17 16 24 27 27 27 34 28 26 27 30 27 28 31 28 31 33 33 33 35 35 33 34
10 9 9 10 11 12 13 14 13 8 9 7 5 7 10 10 11 9 12 16 15 18 22 23 23 21 21 21 25 23 21 26 25 26 30 32 33 32 33 35 34 32 32
Wind_Direction
222 229 223 226 214 202 206 202 199 193 195 194 196 197 197 193 197 214 213 303 341 344 160 167 155 170 176 160 168 176 170 154 163 158 154 153 151 148 134 132 128 122 116
214 228 230 228 231 209 205 204 199 198 196 196 200 196 199 192 204 213 207 288 332 337 167 172 172 177 180 169 179 184 166 165 168 163 165 165 160 146 141 140 137 134 131
207 204 225 236 236 227 215 214 209 202 202 196 201 197 193 200 209 191 226 284 319 314 179 176 182 180 185 177 184 182 174 176 178 173 180 174 170 164 158 155 157 154 144
225 211 211 228 245 237 220 226 217 209 202 199 201 194 195 205 201 193 219 261 324 287 198 188 185 182 192 188 192 182 181 192 187 187 187 186 186 179 175 180 180 178 173
221 212 201 204 248 251 234 227 229 214 203 199 200 195 198 200 199 197 207 235 308 287 219 193 189 192 192 201 200 189 196 195 196 196 198 195 192 196 194 195 201 201 201
196 200 193 195 201 245 239 224 232 220 198 198 200 199 199 200 203 210 204 238 277 274 238 218 200 200 200 208 208 199 195 206 205 204 205 205 202 202 205 206 213 217 219
80 182 201 193 202 229 243 218 224 211 189 194 202 204 195 202 207 210 219 227 251 255 242 232 231 210 205 214 209 203 208 214 213 217 218 213 213 210 210 214 219 226 231
349 125 191 192 189 217 226 220 200 180 195 201 204 200 185 195 202 209 213 217 236 241 237 227 233 229 228 225 217 214 208 214 221 221 225 222 219 220 224 221 225 231 238
336 7 122 177 195 216 212 223 210 211 200 205 208 173 163 180 193 206 211 218 231 237 238 230 228 234 224 225 233 241 234 219 217 227 229 234 227 228 232 235 234 233 239
312 333 59 179 197 200 203 207 216 218 209 206 206 222 207 190 178 188 221 221 229 236 237 238 233 236 237 232 233 241 245 243 236 223 229 235 236 232 232 237 244 243 243
316 316 324 178 196 197 190 200 206 214 216 214 215 212 209 197 199 202 214 227 225 232 234 237 239 239 245 248 243 245 246 241 242 244 236 231 238 239 237 237 243 248 250
344 306 302 285 221 209 203 202 206 221 212 215 219 215 218 210 219 220 229 235 235 232 234 235 239 241 243 251 254 251 250 247 244 246 245 242 241 240 241 242 244 247 250
341 315 298 294 278 217 207 207 212 217 228 225 221 226 228 225 231 228 234 235 232 236 238 240 239 246 248 250 257 256 250 253 249 249 251 248 247 249 248 247 246 249 252
337 338 307 286 283 259 223 207 215 217 229 231 223 231 223 226 239 243 242 240 237 245 241 245 247 250 257 254 255 260 258 254 253 252 251 252 251 248 249 251 250 252 253
345 344 340 302 263 238 226 215 216 216 226 214 228 229 229 243 242 247 254 259 246 228 236 241 247 259 253 266 262 260 260 256 253 253 253 253 251 251 251 250 250 252 253
355 356 6 324 279 250 255 233 218 220 223 225 227 230 243 249 249 242 252 258 250 249 245 253 263 266 268 273 261 267 258 258 259 254 253 253 253 251 252 254 252 251 250
355 356 356 334 319 266 258 253 229 226 226 227 227 231 245 247 246 258 243 257 247 254 243 259 264 264 267 269 262 271 260 256 260 246 247 250 249 250 250 251 254 254 253
359 353 345 334 333 313 275 270 252 238 223 231 232 229 237 245 257 250 247 255 242 254 258 259 264 264 266 269 261 269 272 254 260 253 242 246 247 247 248 247 249 252 254
2 357 349 347 351 338 319 306 276 257 245 236 226 230 238 239 242 251 247 251 253 256 256 258 262 266 269 263 260 262 260 256 245 252 241 238 241 243 245 247 251 254 254
22 353 358 350 347 349 336 316 313 290 259 244 241 237 239 231 238 245 255 246 251 251 260 256 267 271 269 263 253 267 248 236 244 249 242 241 243 239 236 241 246 250 252
25 23 359 349 343 346 352 346 322 305 285 259 246 239 237 242 243 242 245 248 257 262 263 257 252 258 261 264 263 256 253 236 235 247 251 255 240 235 240 242 248 250 253
26 11 13 15 6 354 344 347 336 324 289 269 251 242 245 239 241 244 246 244 250 257 245 244 248 260 263 274 266 259 266 264 259 248 255 259 247 248 238 248 251 248 255
13 14 21 16 19 14 350 347 317 309 308 288 272 257 248 241 242 242 241 251 248 247 250 254 256 255 262 272 277 268 266 263 264 272 265 262 259 251 249 256 259 256 243
11 355 4 11 14 18 19 6 4 302 285 321 308 294 268 261 251 249 249 249 252 248 245 245 250 257 264 268 260 264 275 278 269 265 267 266 266 262 262 264 259 254 252
352 347 354 4 17 18 19 18 39 39 18 345 348 328 318 299 278 264 252 248 250 241 243 249 258 266 250 254 259 265 271 272 267 270 267 263 263 270 269 273 269 262 257
351 348 355 1 13 18 16 13 31 57 58 53 33 18 23 8 357 320 280 267 261 265 258 251 246 244 249 248 258 259 255 257 255 267 268 269 275 270 275 278 276 270 268